User: anonymous   Login
Location: Linz
(48.3300°N, 14.3000°E)
Time: 08:58:33
(UTC+01:00)
Language:

Envisat - Orbit

View from above orbital plane
View from above orbital plane
View from above satellite
View from above satellite

Ground track
Ground track

The orbit data is extracted from the following two-line orbital elements,

1 27386U 02009A   17328.78240391  .00000017  00000-0  19256-4 0  9997
2 27386  98.2120   7.1908 0001472  84.9185 275.2164 14.37909343824154
Epoch (UTC): 24 November 2017 18:46:39
Eccentricity: 0.0001472
inclination: 98.2120°
perigee height: 764 km
apogee height: 766 km
right ascension of ascending node: 7.1908°
argument of perigee: 84.9185°
revolutions per day: 14.37909343
mean anomaly at epoch: 275.2164°
orbit number at epoch: 82415

The dashed part of the orbit path shows where the satellite is in the earth's shadow,  

DLR